Retour au catalogue

STARLINK-33582

ActifCommunicationsVLEO
NORAD 62783·PAYLOAD·🇺🇸 United States

Lancé Jan 21, 2025 depuis Vandenberg Space Force Base

Loading…

Prochains Passages (prochaines 24 heures)

TLE

FraisSource: CelesTrak SupGP

Époque: Sep 14, 2026, 22:25 UTC

1 62783C 25015AB  26257.93451389  .00186800  00000+0  21265-2 0  2570
2 62783  53.1442 147.7916 0006229 158.8436 203.2387 15.61519942    15

Suivez STARLINK-33582 en temps réel avec AllMySat

Download on the App Store